Time,TemperatureF,DewpointF,PressureIn,WindDirection,WindDirectionDegrees,WindSpeedMPH,WindSpeedGustMPH,Humidity,HourlyPrecipIn,Conditions,Clouds,dailyrainin,SoftwareType,DateUTC
2013-10-07 00:03:00,66.6,64.1,29.90,North,0,0.0,0.0,92,0.00,,,1.68,WUHU21623XXSP,2013-10-07 05:03:00,
2013-10-07 00:08:00,66.6,64.1,29.90,North,0,0.0,0.0,92,0.00,,,0.00,WUHU21623XXSP,2013-10-07 05:08:00,
2013-10-07 00:13:00,66.4,64.1,29.90,North,0,0.0,0.0,93,0.00,,,0.00,WUHU21623XXSP,2013-10-07 05:13:00,
2013-10-07 00:18:00,66.4,64.2,29.90,North,0,0.0,0.0,93,0.00,,,0.00,WUHU21623XXSP,2013-10-07 05:18:00,
2013-10-07 00:23:00,66.4,63.9,29.90,North,0,0.0,0.0,92,0.00,,,0.00,WUHU21623XXSP,2013-10-07 05:23:00,
2013-10-07 00:28:00,66.4,63.9,29.90,North,0,0.0,0.0,92,0.00,,,0.00,WUHU21623XXSP,2013-10-07 05:28:00,
2013-10-07 00:33:00,66.4,63.6,29.90,North,0,0.0,0.0,91,0.00,,,0.00,WUHU21623XXSP,2013-10-07 05:33:00,
2013-10-07 00:38:00,66.4,63.3,29.90,North,0,0.0,0.0,90,0.00,,,0.00,WUHU21623XXSP,2013-10-07 05:38:00,
2013-10-07 00:43:00,66.2,62.8,29.91,North,0,0.0,0.0,89,0.00,,,0.00,WUHU21623XXSP,2013-10-07 05:43:00,
2013-10-07 00:48:00,66.0,62.6,29.90,North,0,0.0,0.0,89,0.00,,,0.00,WUHU21623XXSP,2013-10-07 05:48:00,
2013-10-07 00:53:00,66.0,62.6,29.91,North,0,0.0,0.0,89,0.00,,,0.00,WUHU21623XXSP,2013-10-07 05:53:00,
2013-10-07 00:58:00,65.8,61.8,29.91,North,0,0.0,0.0,87,0.00,,,0.00,WUHU21623XXSP,2013-10-07 05:58:00,
2013-10-07 01:03:00,65.8,61.8,29.90,North,0,0.0,0.0,87,0.00,,,0.00,WUHU21623XXSP,2013-10-07 06:03:00,
2013-10-07 01:08:00,65.7,61.3,29.90,North,0,0.0,0.0,86,0.00,,,0.00,WUHU21623XXSP,2013-10-07 06:08:00,
2013-10-07 01:13:00,65.5,61.2,29.90,North,0,0.0,0.0,86,0.00,,,0.00,WUHU21623XXSP,2013-10-07 06:13:00,
2013-10-07 01:18:00,65.5,60.8,29.91,North,0,0.0,0.0,85,0.00,,,0.00,WUHU21623XXSP,2013-10-07 06:18:00,
2013-10-07 01:23:00,65.3,60.7,29.90,North,0,0.0,0.0,85,0.00,,,0.00,WUHU21623XXSP,2013-10-07 06:23:00,
2013-10-07 01:28:00,65.3,60.7,29.90,North,0,0.0,0.0,85,0.00,,,0.00,WUHU21623XXSP,2013-10-07 06:28:00,
2013-10-07 01:33:00,65.3,60.7,29.90,North,0,0.0,0.0,85,0.00,,,0.00,WUHU21623XXSP,2013-10-07 06:33:00,
2013-10-07 01:38:00,65.1,60.2,29.91,North,0,0.0,0.0,84,0.00,,,0.00,WUHU21623XXSP,2013-10-07 06:38:00,
2013-10-07 01:43:00,65.1,60.2,29.91,North,0,0.0,0.0,84,0.00,,,0.00,WUHU21623XXSP,2013-10-07 06:43:00,
2013-10-07 01:48:00,65.1,60.2,29.91,North,0,0.0,0.0,84,0.00,,,0.00,WUHU21623XXSP,2013-10-07 06:48:00,
2013-10-07 01:53:00,65.1,60.2,29.91,North,0,0.0,0.0,84,0.00,,,0.00,WUHU21623XXSP,2013-10-07 06:53:00,
2013-10-07 01:58:00,65.1,60.2,29.91,North,0,0.0,0.0,84,0.00,,,0.00,WUHU21623XXSP,2013-10-07 06:58:00,
2013-10-07 02:03:00,65.1,59.8,29.90,North,0,0.0,0.0,83,0.00,,,0.00,WUHU21623XXSP,2013-10-07 07:03:00,
2013-10-07 02:08:00,65.1,59.8,29.91,North,0,0.0,0.0,83,0.00,,,0.00,WUHU21623XXSP,2013-10-07 07:08:00,
2013-10-07 02:13:00,65.1,59.8,29.91,North,0,0.0,0.0,83,0.00,,,0.00,WUHU21623XXSP,2013-10-07 07:13:00,
2013-10-07 02:18:00,65.1,59.8,29.91,North,0,0.0,0.0,83,0.00,,,0.00,WUHU21623XXSP,2013-10-07 07:18:00,
2013-10-07 02:23:00,65.1,59.8,29.90,North,0,0.0,0.0,83,0.00,,,0.00,WUHU21623XXSP,2013-10-07 07:23:00,
2013-10-07 02:28:00,64.9,59.6,29.90,North,0,0.0,0.0,83,0.00,,,0.00,WUHU21623XXSP,2013-10-07 07:28:00,
2013-10-07 02:33:00,64.9,60.0,29.90,North,0,0.0,0.0,84,0.00,,,0.00,WUHU21623XXSP,2013-10-07 07:33:00,
2013-10-07 02:38:00,64.9,59.6,29.90,North,0,0.0,0.0,83,0.00,,,0.00,WUHU21623XXSP,2013-10-07 07:38:00,
2013-10-07 02:43:00,64.9,59.6,29.89,North,0,0.0,0.0,83,0.00,,,0.00,WUHU21623XXSP,2013-10-07 07:43:00,
2013-10-07 02:48:00,64.9,60.0,29.90,North,0,0.0,0.0,83,0.00,,,0.00,WUHU21623XXSP,2013-10-07 07:48:00,
2013-10-07 02:53:00,64.9,59.6,29.89,North,0,0.0,0.0,83,0.00,,,0.00,WUHU21623XXSP,2013-10-07 07:53:00,
2013-10-07 02:58:00,64.9,59.6,29.89,North,0,0.0,0.0,83,0.00,,,0.00,WUHU21623XXSP,2013-10-07 07:58:00,
2013-10-07 03:03:00,64.9,59.6,29.89,North,0,0.0,0.0,83,0.00,,,0.00,WUHU21623XXSP,2013-10-07 08:03:00,
2013-10-07 03:08:00,64.9,59.6,29.90,North,0,0.0,0.0,83,0.00,,,0.00,WUHU21623XXSP,2013-10-07 08:08:00,
2013-10-07 03:13:00,64.9,59.6,29.90,North,0,0.0,0.0,83,0.00,,,0.00,WUHU21623XXSP,2013-10-07 08:13:00,
2013-10-07 03:18:00,64.9,59.6,29.89,North,0,0.0,0.0,83,0.00,,,0.00,WUHU21623XXSP,2013-10-07 08:18:00,
2013-10-07 03:23:00,64.9,59.6,29.89,North,0,0.0,0.0,83,0.00,,,0.00,WUHU21623XXSP,2013-10-07 08:23:00,
2013-10-07 03:28:00,64.9,59.6,29.89,North,0,0.0,0.0,83,0.00,,,0.00,WUHU21623XXSP,2013-10-07 08:28:00,
2013-10-07 03:33:00,64.8,59.1,29.89,North,0,0.0,0.0,82,0.00,,,0.00,WUHU21623XXSP,2013-10-07 08:33:00,
2013-10-07 03:38:00,64.8,59.1,29.89,North,0,0.0,0.0,82,0.00,,,0.00,WUHU21623XXSP,2013-10-07 08:38:00,
2013-10-07 03:43:00,64.8,59.1,29.89,North,0,0.0,0.0,81,0.00,,,0.00,WUHU21623XXSP,2013-10-07 08:43:00,
2013-10-07 03:48:00,64.8,58.8,29.88,North,0,0.0,0.0,81,0.00,,,0.00,WUHU21623XXSP,2013-10-07 08:48:00,
2013-10-07 03:53:00,64.8,58.8,29.88,North,0,0.0,0.0,81,0.00,,,0.00,WUHU21623XXSP,2013-10-07 08:53:00,
2013-10-07 03:58:00,64.8,58.5,29.88,North,0,0.0,0.0,80,0.00,,,0.00,WUHU21623XXSP,2013-10-07 08:58:00,
2013-10-07 04:03:00,64.8,58.5,29.88,North,0,0.0,0.0,80,0.00,,,0.00,WUHU21623XXSP,2013-10-07 09:03:00,
2013-10-07 04:08:00,64.6,58.3,29.88,North,0,0.0,0.0,80,0.00,,,0.00,WUHU21623XXSP,2013-10-07 09:08:00,
2013-10-07 04:13:00,64.6,58.3,29.88,North,0,0.0,0.0,79,0.00,,,0.00,WUHU21623XXSP,2013-10-07 09:13:00,
2013-10-07 04:18:00,64.6,58.3,29.88,North,0,0.0,0.0,80,0.00,,,0.00,WUHU21623XXSP,2013-10-07 09:18:00,
2013-10-07 04:23:00,64.6,57.9,29.89,North,0,0.0,0.0,79,0.00,,,0.00,WUHU21623XXSP,2013-10-07 09:23:00,
2013-10-07 04:28:00,64.4,57.7,29.89,North,0,0.0,0.0,79,0.00,,,0.00,WUHU21623XXSP,2013-10-07 09:28:00,
2013-10-07 04:33:00,64.2,57.6,29.89,North,0,0.0,0.0,79,0.00,,,0.00,WUHU21623XXSP,2013-10-07 09:33:00,
2013-10-07 04:38:00,64.2,57.7,29.89,North,0,0.0,0.0,79,0.00,,,0.00,WUHU21623XXSP,2013-10-07 09:38:00,
2013-10-07 04:43:00,64.2,57.6,29.89,North,0,0.0,0.0,79,0.00,,,0.00,WUHU21623XXSP,2013-10-07 09:43:00,
2013-10-07 04:48:00,64.2,57.2,29.89,North,0,0.0,0.0,78,0.00,,,0.00,WUHU21623XXSP,2013-10-07 09:48:00,
2013-10-07 04:53:00,64.0,57.0,29.89,North,0,0.0,0.0,78,0.00,,,0.00,WUHU21623XXSP,2013-10-07 09:53:00,
2013-10-07 04:58:00,64.0,57.0,29.89,North,0,0.0,0.0,78,0.00,,,0.00,WUHU21623XXSP,2013-10-07 09:58:00,
2013-10-07 05:03:00,64.0,57.0,29.90,North,0,0.0,0.0,78,0.00,,,0.00,WUHU21623XXSP,2013-10-07 10:03:00,
2013-10-07 05:08:00,63.7,56.7,29.90,North,0,0.0,0.0,78,0.00,,,0.00,WUHU21623XXSP,2013-10-07 10:08:00,
2013-10-07 05:13:00,63.7,56.7,29.90,North,0,0.0,0.0,78,0.00,,,0.00,WUHU21623XXSP,2013-10-07 10:13:00,
2013-10-07 05:18:00,63.7,56.7,29.90,North,0,0.0,0.0,78,0.00,,,0.00,WUHU21623XXSP,2013-10-07 10:18:00,
2013-10-07 05:23:00,63.5,56.5,29.90,North,0,0.0,0.0,78,0.00,,,0.00,WUHU21623XXSP,2013-10-07 10:23:00,
2013-10-07 05:28:00,63.3,56.3,29.90,North,0,0.0,0.0,78,0.00,,,0.00,WUHU21623XXSP,2013-10-07 10:28:00,
2013-10-07 05:33:00,63.3,56.3,29.90,North,0,0.0,0.0,78,0.00,,,0.00,WUHU21623XXSP,2013-10-07 10:33:00,
2013-10-07 05:38:00,63.1,56.1,29.90,North,0,0.0,0.0,78,0.00,,,0.00,WUHU21623XXSP,2013-10-07 10:38:00,
2013-10-07 05:43:00,63.1,56.5,29.90,North,0,0.0,0.0,79,0.00,,,0.00,WUHU21623XXSP,2013-10-07 10:43:00,
2013-10-07 05:48:00,63.1,56.5,29.90,North,0,0.0,0.0,79,0.00,,,0.00,WUHU21623XXSP,2013-10-07 10:48:00,
2013-10-07 05:53:00,63.0,56.3,29.90,North,0,0.0,0.0,79,0.00,,,0.00,WUHU21623XXSP,2013-10-07 10:53:00,
2013-10-07 05:58:00,63.0,56.3,29.90,North,0,0.0,0.0,79,0.00,,,0.00,WUHU21623XXSP,2013-10-07 10:58:00,
2013-10-07 06:03:00,62.8,56.3,29.90,North,0,0.0,0.0,79,0.00,,,0.00,WUHU21623XXSP,2013-10-07 11:03:00,
2013-10-07 06:08:00,62.8,56.1,29.90,North,0,0.0,0.0,79,0.00,,,0.00,WUHU21623XXSP,2013-10-07 11:08:00,
2013-10-07 06:13:00,62.8,56.1,29.90,North,0,0.0,0.0,79,0.00,,,0.00,WUHU21623XXSP,2013-10-07 11:13:00,
2013-10-07 06:18:00,62.6,56.1,29.90,North,0,0.0,0.0,79,0.00,,,0.00,WUHU21623XXSP,2013-10-07 11:18:00,
2013-10-07 06:23:00,62.4,55.8,29.90,North,0,0.0,0.0,79,0.00,,,0.00,WUHU21623XXSP,2013-10-07 11:23:00,
2013-10-07 06:28:00,62.4,56.1,29.91,North,0,0.0,0.0,80,0.00,,,0.00,WUHU21623XXSP,2013-10-07 11:28:00,
2013-10-07 06:33:00,62.4,56.1,29.91,North,0,0.0,0.0,80,0.00,,,0.00,WUHU21623XXSP,2013-10-07 11:33:00,
2013-10-07 06:38:00,62.4,56.1,29.91,North,0,0.0,0.0,80,0.00,,,0.00,WUHU21623XXSP,2013-10-07 11:38:00,
2013-10-07 06:43:00,62.2,56.0,29.91,North,0,0.0,0.0,80,0.00,,,0.00,WUHU21623XXSP,2013-10-07 11:43:00,
2013-10-07 06:48:00,62.2,56.0,29.91,North,0,0.0,0.0,80,0.00,,,0.00,WUHU21623XXSP,2013-10-07 11:48:00,
2013-10-07 06:53:00,62.1,56.1,29.92,North,0,0.0,0.0,81,0.00,,,0.00,WUHU21623XXSP,2013-10-07 11:53:00,
2013-10-07 06:58:00,61.9,56.0,29.92,North,0,0.0,0.0,81,0.00,,,0.00,WUHU21623XXSP,2013-10-07 11:58:00,
2013-10-07 07:03:00,61.9,56.0,29.92,North,0,0.0,0.0,81,0.00,,,0.00,WUHU21623XXSP,2013-10-07 12:03:00,
2013-10-07 07:08:00,61.9,56.0,29.92,North,0,0.0,0.0,81,0.00,,,0.00,WUHU21623XXSP,2013-10-07 12:08:00,
2013-10-07 07:13:00,61.9,56.0,29.92,North,0,0.0,0.0,81,0.00,,,0.00,WUHU21623XXSP,2013-10-07 12:13:00,
2013-10-07 07:18:00,61.9,56.3,29.92,North,0,0.0,0.0,82,0.00,,,0.00,WUHU21623XXSP,2013-10-07 12:18:00,
2013-10-07 07:23:00,61.7,56.2,29.93,North,0,0.0,0.0,82,0.00,,,0.00,WUHU21623XXSP,2013-10-07 12:23:00,
2013-10-07 07:28:00,61.7,56.2,29.93,North,0,0.0,0.0,82,0.00,,,0.00,WUHU21623XXSP,2013-10-07 12:28:00,
2013-10-07 07:33:00,61.9,56.6,29.93,North,0,0.0,0.0,83,0.00,,,0.00,WUHU21623XXSP,2013-10-07 12:33:00,
2013-10-07 07:38:00,61.9,56.6,29.94,North,0,0.0,0.0,83,0.00,,,0.00,WUHU21623XXSP,2013-10-07 12:38:00,
2013-10-07 07:43:00,61.9,56.6,29.94,North,0,0.0,0.0,83,0.00,,,0.00,WUHU21623XXSP,2013-10-07 12:43:00,
2013-10-07 07:48:00,61.9,56.6,29.94,North,0,0.0,0.0,83,0.00,,,0.00,WUHU21623XXSP,2013-10-07 12:48:00,
2013-10-07 07:53:00,61.9,56.6,29.94,North,0,0.0,0.0,83,0.00,,,0.00,WUHU21623XXSP,2013-10-07 12:53:00,
2013-10-07 07:58:00,62.1,56.8,29.94,North,0,0.0,0.0,83,0.00,,,0.00,WUHU21623XXSP,2013-10-07 12:58:00,
2013-10-07 08:03:00,62.1,56.8,29.94,North,0,0.0,0.0,83,0.00,,,0.00,WUHU21623XXSP,2013-10-07 13:03:00,
2013-10-07 08:08:00,62.2,57.0,29.95,North,0,0.0,0.0,83,0.00,,,0.00,WUHU21623XXSP,2013-10-07 13:08:00,
2013-10-07 08:13:00,62.2,57.0,29.95,North,0,0.0,0.0,83,0.00,,,0.00,WUHU21623XXSP,2013-10-07 13:13:00,
2013-10-07 08:18:00,62.2,57.0,29.95,North,0,0.0,0.0,83,0.00,,,0.00,WUHU21623XXSP,2013-10-07 13:18:00,
2013-10-07 08:23:00,62.4,56.8,29.95,North,0,0.0,0.0,82,0.00,,,0.00,WUHU21623XXSP,2013-10-07 13:23:00,
2013-10-07 08:28:00,62.4,56.8,29.95,North,0,0.0,0.0,82,0.00,,,0.00,WUHU21623XXSP,2013-10-07 13:28:00,
2013-10-07 08:33:00,62.6,57.0,29.95,North,0,0.0,0.0,82,0.00,,,0.00,WUHU21623XXSP,2013-10-07 13:33:00,
2013-10-07 08:38:00,62.6,57.0,29.95,North,0,0.0,0.0,82,0.00,,,0.00,WUHU21623XXSP,2013-10-07 13:38:00,
2013-10-07 08:43:00,62.8,57.2,29.96,North,0,0.0,0.0,82,0.00,,,0.00,WUHU21623XXSP,2013-10-07 13:43:00,
2013-10-07 08:48:00,62.8,57.2,29.96,North,0,0.0,0.0,82,0.00,,,0.00,WUHU21623XXSP,2013-10-07 13:48:00,
2013-10-07 08:53:00,63.0,57.3,29.96,North,0,0.0,0.0,82,0.00,,,0.00,WUHU21623XXSP,2013-10-07 13:53:00,
2013-10-07 08:58:00,63.0,57.3,29.96,North,0,0.0,0.0,82,0.00,,,0.00,WUHU21623XXSP,2013-10-07 13:58:00,
2013-10-07 09:03:00,63.1,57.2,29.96,North,0,0.0,0.0,81,0.00,,,0.00,WUHU21623XXSP,2013-10-07 14:03:00,
2013-10-07 09:08:00,63.3,57.4,29.96,North,0,0.0,0.0,81,0.00,,,0.00,WUHU21623XXSP,2013-10-07 14:08:00,
2013-10-07 09:13:00,63.5,57.4,29.96,North,0,0.0,0.0,80,0.00,,,0.00,WUHU21623XXSP,2013-10-07 14:13:00,
2013-10-07 09:18:00,63.7,57.4,29.96,North,0,0.0,0.0,80,0.00,,,0.00,WUHU21623XXSP,2013-10-07 14:18:00,
2013-10-07 09:23:00,63.7,56.7,29.97,North,0,0.0,0.0,78,0.00,,,0.00,WUHU21623XXSP,2013-10-07 14:23:00,
2013-10-07 09:28:00,64.0,57.0,29.97,North,0,0.0,0.0,78,0.00,,,0.00,WUHU21623XXSP,2013-10-07 14:28:00,
2013-10-07 09:33:00,64.0,57.0,29.97,North,0,0.0,0.0,78,0.00,,,0.00,WUHU21623XXSP,2013-10-07 14:33:00,
2013-10-07 09:38:00,64.2,56.8,29.97,North,0,0.0,0.0,77,0.00,,,0.00,WUHU21623XXSP,2013-10-07 14:38:00,
2013-10-07 09:43:00,64.6,57.2,29.97,North,0,0.0,0.0,77,0.00,,,0.00,WUHU21623XXSP,2013-10-07 14:43:00,
2013-10-07 09:48:00,64.8,56.6,29.98,North,0,0.0,0.0,75,0.00,,,0.00,WUHU21623XXSP,2013-10-07 14:48:00,
2013-10-07 09:53:00,64.9,56.8,29.97,North,0,0.0,0.0,75,0.00,,,0.00,WUHU21623XXSP,2013-10-07 14:53:00,
2013-10-07 09:58:00,65.1,57.0,29.97,North,0,0.0,0.0,75,0.00,,,0.00,WUHU21623XXSP,2013-10-07 14:58:00,
2013-10-07 10:03:00,65.5,56.6,29.97,North,0,0.0,0.0,73,0.00,,,0.00,WUHU21623XXSP,2013-10-07 15:03:00,
2013-10-07 10:08:00,65.8,56.5,29.97,North,0,0.0,0.0,72,0.00,,,0.00,WUHU21623XXSP,2013-10-07 15:08:00,
2013-10-07 10:13:00,66.0,56.5,29.97,North,0,0.0,0.0,71,0.00,,,0.00,WUHU21623XXSP,2013-10-07 15:13:00,
2013-10-07 10:18:00,66.2,56.5,29.96,North,0,0.0,0.0,71,0.00,,,0.00,WUHU21623XXSP,2013-10-07 15:18:00,
2013-10-07 10:23:00,66.4,56.7,29.97,North,0,0.0,0.0,71,0.00,,,0.00,WUHU21623XXSP,2013-10-07 15:23:00,
2013-10-07 10:28:00,66.6,56.0,29.97,North,0,0.0,0.0,69,0.00,,,0.00,WUHU21623XXSP,2013-10-07 15:28:00,
2013-10-07 10:33:00,66.7,56.2,29.97,North,0,0.0,0.0,69,0.00,,,0.00,WUHU21623XXSP,2013-10-07 15:33:00,
2013-10-07 10:38:00,66.9,56.0,29.97,North,0,0.0,0.0,68,0.00,,,0.00,WUHU21623XXSP,2013-10-07 15:38:00,
2013-10-07 10:43:00,67.1,56.2,29.97,North,0,0.0,0.0,68,0.00,,,0.00,WUHU21623XXSP,2013-10-07 15:43:00,
2013-10-07 10:48:00,67.3,55.9,29.96,North,0,0.0,0.0,67,0.00,,,0.00,WUHU21623XXSP,2013-10-07 15:48:00,
2013-10-07 10:53:00,67.6,56.7,29.96,North,0,0.0,0.0,68,0.00,,,0.00,WUHU21623XXSP,2013-10-07 15:53:00,
2013-10-07 10:58:00,67.6,56.7,29.96,North,0,0.0,0.0,68,0.00,,,0.00,WUHU21623XXSP,2013-10-07 15:58:00,
2013-10-07 11:03:00,67.8,56.9,29.96,North,0,0.0,0.0,68,0.00,,,0.00,WUHU21623XXSP,2013-10-07 16:03:00,
2013-10-07 11:08:00,68.2,56.8,29.96,North,0,0.0,0.0,67,0.00,,,0.00,WUHU21623XXSP,2013-10-07 16:08:00,
2013-10-07 11:13:00,68.4,57.4,29.95,North,0,0.0,0.0,68,0.00,,,0.00,WUHU21623XXSP,2013-10-07 16:13:00,
2013-10-07 11:18:00,68.7,57.3,29.96,North,0,0.0,0.0,67,0.00,,,0.00,WUHU21623XXSP,2013-10-07 16:18:00,
2013-10-07 11:23:00,68.9,56.6,29.95,North,0,0.0,0.0,65,0.00,,,0.00,WUHU21623XXSP,2013-10-07 16:23:00,
2013-10-07 11:28:00,69.1,57.0,29.95,North,0,0.0,0.0,66,0.00,,,0.00,WUHU21623XXSP,2013-10-07 16:28:00,
2013-10-07 11:33:00,69.3,56.9,29.95,North,0,0.0,0.0,65,0.00,,,0.00,WUHU21623XXSP,2013-10-07 16:33:00,
2013-10-07 11:38:00,69.4,56.9,29.95,North,0,0.0,0.0,64,0.00,,,0.00,WUHU21623XXSP,2013-10-07 16:38:00,
2013-10-07 11:43:00,69.4,56.3,29.95,North,0,0.0,0.0,62,0.00,,,0.00,WUHU21623XXSP,2013-10-07 16:43:00,
2013-10-07 11:48:00,69.8,56.5,29.95,North,0,0.0,0.0,63,0.00,,,0.00,WUHU21623XXSP,2013-10-07 16:48:00,
2013-10-07 11:53:00,70.2,57.0,29.95,North,0,0.0,0.0,63,0.00,,,0.00,WUHU21623XXSP,2013-10-07 16:53:00,
2013-10-07 11:58:00,70.3,56.7,29.95,North,0,0.0,0.0,62,0.00,,,0.00,WUHU21623XXSP,2013-10-07 16:58:00,
2013-10-07 12:03:00,70.7,57.1,29.95,North,0,0.0,0.0,62,0.00,,,0.00,WUHU21623XXSP,2013-10-07 17:03:00,
2013-10-07 12:08:00,71.2,56.7,29.95,North,0,0.0,0.0,60,0.00,,,0.00,WUHU21623XXSP,2013-10-07 17:08:00,
2013-10-07 12:13:00,71.4,56.9,29.95,North,0,0.0,0.0,60,0.00,,,0.00,WUHU21623XXSP,2013-10-07 17:13:00,
2013-10-07 12:18:00,72.0,56.3,29.95,North,0,0.0,0.0,58,0.00,,,0.00,WUHU21623XXSP,2013-10-07 17:18:00,
2013-10-07 12:23:00,72.5,56.3,29.94,North,0,0.0,0.0,57,0.00,,,0.00,WUHU21623XXSP,2013-10-07 17:23:00,
2013-10-07 12:28:00,72.7,56.5,29.94,North,0,0.0,0.0,57,0.00,,,0.00,WUHU21623XXSP,2013-10-07 17:28:00,
2013-10-07 12:33:00,73.2,56.5,29.94,North,0,0.0,0.0,56,0.00,,,0.00,WUHU21623XXSP,2013-10-07 17:33:00,
2013-10-07 12:38:00,73.6,56.3,29.94,North,0,0.0,0.0,55,0.00,,,0.00,WUHU21623XXSP,2013-10-07 17:38:00,
2013-10-07 12:43:00,73.8,56.0,29.94,North,0,0.0,0.0,54,0.00,,,0.00,WUHU21623XXSP,2013-10-07 17:43:00,
2013-10-07 12:48:00,74.1,56.3,29.94,North,0,0.0,0.0,54,0.00,,,0.00,WUHU21623XXSP,2013-10-07 17:48:00,
2013-10-07 12:53:00,74.3,56.0,29.93,North,0,0.0,0.0,53,0.00,,,0.00,WUHU21623XXSP,2013-10-07 17:53:00,
2013-10-07 12:58:00,74.5,56.2,29.93,North,0,0.0,0.0,53,0.00,,,0.00,WUHU21623XXSP,2013-10-07 17:58:00,
2013-10-07 13:03:00,74.8,55.5,29.93,North,0,0.0,0.0,51,0.00,,,0.00,WUHU21623XXSP,2013-10-07 18:03:00,
2013-10-07 13:08:00,75.0,56.2,29.93,North,0,0.0,0.0,52,0.00,,,0.00,WUHU21623XXSP,2013-10-07 18:08:00,
2013-10-07 13:13:00,75.0,56.2,29.93,North,0,0.0,0.0,52,0.00,,,0.00,WUHU21623XXSP,2013-10-07 18:13:00,
2013-10-07 13:18:00,75.4,56.1,29.93,North,0,0.0,0.0,51,0.00,,,0.00,WUHU21623XXSP,2013-10-07 18:18:00,
2013-10-07 13:23:00,75.7,55.9,29.92,North,0,0.0,0.0,50,0.00,,,0.00,WUHU21623XXSP,2013-10-07 18:23:00,
2013-10-07 13:28:00,75.9,55.4,29.93,North,0,0.0,0.0,49,0.00,,,0.00,WUHU21623XXSP,2013-10-07 18:28:00,
2013-10-07 13:33:00,75.9,54.8,29.92,North,0,0.0,0.0,48,0.00,,,0.00,WUHU21623XXSP,2013-10-07 18:33:00,
2013-10-07 13:38:00,75.9,54.8,29.92,North,0,0.0,0.0,48,0.00,,,0.00,WUHU21623XXSP,2013-10-07 18:38:00,
2013-10-07 13:43:00,75.9,54.2,29.92,North,0,0.0,0.0,47,0.00,,,0.00,WUHU21623XXSP,2013-10-07 18:43:00,
2013-10-07 13:48:00,75.9,54.8,29.92,North,0,0.0,0.0,48,0.00,,,0.00,WUHU21623XXSP,2013-10-07 18:48:00,
2013-10-07 13:53:00,76.1,55.0,29.92,North,0,0.0,0.0,48,0.00,,,0.00,WUHU21623XXSP,2013-10-07 18:53:00,
2013-10-07 13:58:00,76.3,54.5,29.92,North,0,0.0,0.0,47,0.00,,,0.00,WUHU21623XXSP,2013-10-07 18:58:00,
2013-10-07 14:03:00,76.1,55.0,29.92,North,0,0.0,0.0,48,0.00,,,0.00,WUHU21623XXSP,2013-10-07 19:03:00,
2013-10-07 14:08:00,76.3,55.1,29.92,North,0,0.0,0.0,48,0.00,,,0.00,WUHU21623XXSP,2013-10-07 19:08:00,
2013-10-07 14:13:00,76.6,54.9,29.92,North,0,0.0,0.0,47,0.00,,,0.00,WUHU21623XXSP,2013-10-07 19:13:00,
2013-10-07 14:18:00,76.8,55.0,29.91,North,0,0.0,0.0,47,0.00,,,0.00,WUHU21623XXSP,2013-10-07 19:18:00,
2013-10-07 14:23:00,77.2,55.3,29.91,North,0,0.0,0.0,47,0.00,,,0.00,WUHU21623XXSP,2013-10-07 19:23:00,
2013-10-07 14:28:00,77.2,54.7,29.91,North,0,0.0,0.0,46,0.00,,,0.00,WUHU21623XXSP,2013-10-07 19:28:00,
2013-10-07 14:33:00,77.2,54.7,29.91,North,0,0.0,0.0,46,0.00,,,0.00,WUHU21623XXSP,2013-10-07 19:33:00,
2013-10-07 14:38:00,77.2,54.1,29.91,North,0,0.0,0.0,45,0.00,,,0.00,WUHU21623XXSP,2013-10-07 19:38:00,
2013-10-07 14:43:00,76.8,54.4,29.91,North,0,0.0,0.0,46,0.00,,,0.00,WUHU21623XXSP,2013-10-07 19:43:00,
2013-10-07 14:48:00,76.8,54.4,29.91,North,0,0.0,0.0,46,0.00,,,0.00,WUHU21623XXSP,2013-10-07 19:48:00,
2013-10-07 14:53:00,77.0,55.2,29.91,North,0,0.0,0.0,47,0.00,,,0.00,WUHU21623XXSP,2013-10-07 19:53:00,
2013-10-07 14:58:00,77.2,54.7,29.91,North,0,0.0,0.0,46,0.00,,,0.00,WUHU21623XXSP,2013-10-07 19:58:00,
2013-10-07 15:03:00,77.4,54.3,29.91,North,0,0.0,0.0,45,0.00,,,0.00,WUHU21623XXSP,2013-10-07 20:03:00,
2013-10-07 15:08:00,77.4,54.9,29.91,North,0,0.0,0.0,46,0.00,,,0.00,WUHU21623XXSP,2013-10-07 20:08:00,
2013-10-07 15:13:00,77.5,55.1,29.91,North,0,0.0,0.0,46,0.00,,,0.00,WUHU21623XXSP,2013-10-07 20:13:00,
2013-10-07 15:18:00,77.5,55.7,29.91,North,0,0.0,0.0,47,0.00,,,0.00,WUHU21623XXSP,2013-10-07 20:18:00,
2013-10-07 15:23:00,77.7,54.6,29.91,North,0,0.0,0.0,45,0.00,,,0.00,WUHU21623XXSP,2013-10-07 20:23:00,
2013-10-07 15:28:00,77.7,54.6,29.91,North,0,0.0,0.0,45,0.00,,,0.00,WUHU21623XXSP,2013-10-07 20:28:00,
2013-10-07 15:33:00,77.5,54.4,29.91,North,0,0.0,0.0,45,0.00,,,0.00,WUHU21623XXSP,2013-10-07 20:33:00,
2013-10-07 15:38:00,77.5,55.1,29.91,North,0,0.0,0.0,46,0.00,,,0.00,WUHU21623XXSP,2013-10-07 20:38:00,
2013-10-07 15:43:00,77.5,55.1,29.91,North,0,0.0,0.0,46,0.00,,,0.00,WUHU21623XXSP,2013-10-07 20:43:00,
2013-10-07 15:48:00,77.7,55.2,29.91,North,0,0.0,0.0,46,0.00,,,0.00,WUHU21623XXSP,2013-10-07 20:48:00,
2013-10-07 15:53:00,77.7,55.2,29.91,North,0,0.0,0.0,46,0.00,,,0.00,WUHU21623XXSP,2013-10-07 20:53:00,
2013-10-07 15:58:00,77.5,55.1,29.91,North,0,0.0,0.0,46,0.00,,,0.00,WUHU21623XXSP,2013-10-07 20:58:00,
2013-10-07 16:03:00,77.5,55.1,29.91,North,0,0.0,0.0,46,0.00,,,0.00,WUHU21623XXSP,2013-10-07 21:03:00,
2013-10-07 16:08:00,77.5,55.1,29.91,North,0,0.0,0.0,46,0.00,,,0.00,WUHU21623XXSP,2013-10-07 21:08:00,
2013-10-07 16:13:00,77.5,55.1,29.91,North,0,0.0,0.0,46,0.00,,,0.00,WUHU21623XXSP,2013-10-07 21:13:00,
2013-10-07 16:18:00,77.4,54.9,29.90,North,0,0.0,0.0,46,0.00,,,0.00,WUHU21623XXSP,2013-10-07 21:18:00,
2013-10-07 16:23:00,77.4,55.5,29.90,North,0,0.0,0.0,47,0.00,,,0.00,WUHU21623XXSP,2013-10-07 21:23:00,
2013-10-07 16:28:00,77.4,55.5,29.91,North,0,0.0,0.0,47,0.00,,,0.00,WUHU21623XXSP,2013-10-07 21:28:00,
2013-10-07 16:33:00,77.4,55.5,29.91,North,0,0.0,0.0,47,0.00,,,0.00,WUHU21623XXSP,2013-10-07 21:33:00,
2013-10-07 16:38:00,77.2,56.1,29.91,North,0,0.0,0.0,47,0.00,,,0.00,WUHU21623XXSP,2013-10-07 21:38:00,
2013-10-07 16:43:00,77.2,56.0,29.91,North,0,0.0,0.0,48,0.00,,,0.00,WUHU21623XXSP,2013-10-07 21:43:00,
2013-10-07 16:48:00,76.8,55.6,29.90,North,0,0.0,0.0,48,0.00,,,0.00,WUHU21623XXSP,2013-10-07 21:48:00,
2013-10-07 16:53:00,76.8,55.6,29.90,North,0,0.0,0.0,48,0.00,,,0.00,WUHU21623XXSP,2013-10-07 21:53:00,
2013-10-07 16:58:00,76.8,56.2,29.90,North,0,0.0,0.0,49,0.00,,,0.00,WUHU21623XXSP,2013-10-07 21:58:00,
2013-10-07 17:03:00,76.6,55.5,29.90,North,0,0.0,0.0,48,0.00,,,0.00,WUHU21623XXSP,2013-10-07 22:03:00,
2013-10-07 17:08:00,76.3,55.1,29.90,North,0,0.0,0.0,48,0.00,,,0.00,WUHU21623XXSP,2013-10-07 22:08:00,
2013-10-07 17:13:00,76.1,55.0,29.91,North,0,0.0,0.0,48,0.00,,,0.00,WUHU21623XXSP,2013-10-07 22:13:00,
2013-10-07 17:18:00,75.9,55.4,29.91,North,0,0.0,0.0,49,0.00,,,0.00,WUHU21623XXSP,2013-10-07 22:18:00,
2013-10-07 17:23:00,75.9,55.4,29.91,North,0,0.0,0.0,49,0.00,,,0.00,WUHU21623XXSP,2013-10-07 22:23:00,
2013-10-07 17:28:00,75.7,55.3,29.91,North,0,0.0,0.0,49,0.00,,,0.00,WUHU21623XXSP,2013-10-07 22:28:00,
2013-10-07 17:33:00,75.4,55.1,29.92,North,0,0.0,0.0,50,0.00,,,0.00,WUHU21623XXSP,2013-10-07 22:33:00,
2013-10-07 17:38:00,75.0,55.6,29.92,North,0,0.0,0.0,50,0.00,,,0.00,WUHU21623XXSP,2013-10-07 22:38:00,
2013-10-07 17:43:00,75.0,55.2,29.92,North,0,0.0,0.0,50,0.00,,,0.00,WUHU21623XXSP,2013-10-07 22:43:00,
2013-10-07 17:48:00,74.8,55.0,29.92,North,0,0.0,0.0,50,0.00,,,0.00,WUHU21623XXSP,2013-10-07 22:48:00,
2013-10-07 17:53:00,74.5,54.7,29.92,North,0,0.0,0.0,50,0.00,,,0.00,WUHU21623XXSP,2013-10-07 22:53:00,
2013-10-07 17:58:00,73.6,54.3,29.93,North,0,0.0,0.0,51,0.00,,,0.00,WUHU21623XXSP,2013-10-07 22:58:00,
2013-10-07 18:03:00,73.2,54.4,29.93,North,0,0.0,0.0,52,0.00,,,0.00,WUHU21623XXSP,2013-10-07 23:03:00,
2013-10-07 18:08:00,72.7,54.0,29.93,North,0,0.0,0.0,52,0.00,,,0.00,WUHU21623XXSP,2013-10-07 23:08:00,
2013-10-07 18:13:00,72.1,54.0,29.93,North,0,0.0,0.0,53,0.00,,,0.00,WUHU21623XXSP,2013-10-07 23:13:00,
2013-10-07 18:18:00,72.0,54.3,29.93,North,0,0.0,0.0,54,0.00,,,0.00,WUHU21623XXSP,2013-10-07 23:18:00,
2013-10-07 18:23:00,71.4,54.3,29.93,North,0,0.0,0.0,55,0.00,,,0.00,WUHU21623XXSP,2013-10-07 23:23:00,
2013-10-07 18:28:00,70.9,54.2,29.93,North,0,0.0,0.0,56,0.00,,,0.00,WUHU21623XXSP,2013-10-07 23:28:00,
2013-10-07 18:33:00,70.5,54.4,29.94,North,0,0.0,0.0,57,0.00,,,0.00,WUHU21623XXSP,2013-10-07 23:33:00,
2013-10-07 18:38:00,70.3,54.4,29.94,North,0,0.0,0.0,57,0.00,,,0.00,WUHU21623XXSP,2013-10-07 23:38:00,
2013-10-07 18:43:00,69.8,54.4,29.95,North,0,0.0,0.0,58,0.00,,,0.00,WUHU21623XXSP,2013-10-07 23:43:00,
2013-10-07 18:48:00,69.6,54.2,29.95,North,0,0.0,0.0,58,0.00,,,0.00,WUHU21623XXSP,2013-10-07 23:48:00,
2013-10-07 18:53:00,69.1,54.2,29.95,North,0,0.0,0.0,59,0.00,,,0.00,WUHU21623XXSP,2013-10-07 23:53:00,
2013-10-07 18:58:00,68.7,53.8,29.95,North,0,0.0,0.0,59,0.00,,,0.00,WUHU21623XXSP,2013-10-07 23:58:00,
2013-10-07 19:03:00,68.5,54.1,29.96,North,0,0.0,0.0,60,0.00,,,0.00,WUHU21623XXSP,2013-10-08 00:03:00,
2013-10-07 19:08:00,68.2,54.0,29.96,North,0,0.0,0.0,60,0.00,,,0.00,WUHU21623XXSP,2013-10-08 00:08:00,
2013-10-07 19:13:00,67.8,53.9,29.96,North,0,0.0,0.0,61,0.00,,,0.00,WUHU21623XXSP,2013-10-08 00:13:00,
2013-10-07 19:18:00,67.8,54.3,29.96,North,0,0.0,0.0,62,0.00,,,0.00,WUHU21623XXSP,2013-10-08 00:18:00,
2013-10-07 19:23:00,67.6,54.1,29.96,North,0,0.0,0.0,62,0.00,,,0.00,WUHU21623XXSP,2013-10-08 00:23:00,
2013-10-07 19:28:00,67.3,53.8,29.96,North,0,0.0,0.0,63,0.00,,,0.00,WUHU21623XXSP,2013-10-08 00:28:00,
2013-10-07 19:33:00,67.1,54.2,29.97,North,0,0.0,0.0,63,0.00,,,0.00,WUHU21623XXSP,2013-10-08 00:33:00,
2013-10-07 19:38:00,66.9,53.9,29.97,North,0,0.0,0.0,63,0.00,,,0.00,WUHU21623XXSP,2013-10-08 00:38:00,
2013-10-07 19:43:00,66.7,54.1,29.97,North,0,0.0,0.0,64,0.00,,,0.00,WUHU21623XXSP,2013-10-08 00:43:00,
2013-10-07 19:48:00,66.4,54.0,29.97,North,0,0.0,0.0,64,0.00,,,0.00,WUHU21623XXSP,2013-10-08 00:48:00,
2013-10-07 19:53:00,66.2,54.0,29.98,North,0,0.0,0.0,65,0.00,,,0.00,WUHU21623XXSP,2013-10-08 00:53:00,
2013-10-07 19:58:00,66.0,53.9,29.98,North,0,0.0,0.0,65,0.00,,,0.00,WUHU21623XXSP,2013-10-08 00:58:00,
2013-10-07 20:03:00,65.8,54.1,29.98,North,0,0.0,0.0,66,0.00,,,0.00,WUHU21623XXSP,2013-10-08 01:03:00,
2013-10-07 20:08:00,65.7,53.9,29.99,North,0,0.0,0.0,66,0.00,,,0.00,WUHU21623XXSP,2013-10-08 01:08:00,
2013-10-07 20:13:00,65.5,53.8,29.99,North,0,0.0,0.0,66,0.00,,,0.00,WUHU21623XXSP,2013-10-08 01:13:00,
2013-10-07 20:18:00,65.3,53.6,29.99,North,0,0.0,0.0,66,0.00,,,0.00,WUHU21623XXSP,2013-10-08 01:18:00,
2013-10-07 20:23:00,65.1,53.4,29.99,North,0,0.0,0.0,66,0.00,,,0.00,WUHU21623XXSP,2013-10-08 01:23:00,
2013-10-07 20:28:00,64.9,53.7,29.99,North,0,0.0,0.0,67,0.00,,,0.00,WUHU21623XXSP,2013-10-08 01:28:00,
2013-10-07 20:33:00,64.9,53.7,29.99,North,0,0.0,0.0,67,0.00,,,0.00,WUHU21623XXSP,2013-10-08 01:33:00,
2013-10-07 20:38:00,64.8,54.0,29.99,North,0,0.0,0.0,68,0.00,,,0.00,WUHU21623XXSP,2013-10-08 01:38:00,
2013-10-07 20:43:00,64.6,53.8,30.00,North,0,0.0,0.0,68,0.00,,,0.00,WUHU21623XXSP,2013-10-08 01:43:00,
2013-10-07 20:48:00,64.2,53.5,30.00,North,0,0.0,0.0,68,0.00,,,0.00,WUHU21623XXSP,2013-10-08 01:48:00,
2013-10-07 20:53:00,64.2,53.9,30.00,North,0,0.0,0.0,69,0.00,,,0.00,WUHU21623XXSP,2013-10-08 01:53:00,
2013-10-07 20:58:00,64.0,53.7,30.00,North,0,0.0,0.0,69,0.00,,,0.00,WUHU21623XXSP,2013-10-08 01:58:00,
2013-10-07 21:03:00,63.9,53.7,30.00,North,0,0.0,0.0,69,0.00,,,0.00,WUHU21623XXSP,2013-10-08 02:03:00,
2013-10-07 21:08:00,63.7,53.3,30.00,North,0,0.0,0.0,69,0.00,,,0.00,WUHU21623XXSP,2013-10-08 02:08:00,
2013-10-07 21:13:00,63.7,53.8,30.00,North,0,0.0,0.0,70,0.00,,,0.00,WUHU21623XXSP,2013-10-08 02:13:00,
2013-10-07 21:18:00,63.5,53.6,30.00,North,0,0.0,0.0,70,0.00,,,0.00,WUHU21623XXSP,2013-10-08 02:18:00,
2013-10-07 21:23:00,63.3,53.4,30.00,North,0,0.0,0.0,70,0.00,,,0.00,WUHU21623XXSP,2013-10-08 02:23:00,
2013-10-07 21:28:00,63.1,53.8,30.01,North,0,0.0,0.0,71,0.00,,,0.00,WUHU21623XXSP,2013-10-08 02:28:00,
2013-10-07 21:33:00,63.1,53.6,30.00,North,0,0.0,0.0,71,0.00,,,0.00,WUHU21623XXSP,2013-10-08 02:33:00,
2013-10-07 21:38:00,63.1,53.6,30.01,North,0,0.0,0.0,71,0.00,,,0.00,WUHU21623XXSP,2013-10-08 02:38:00,
2013-10-07 21:43:00,63.0,53.4,30.01,North,0,0.0,0.0,71,0.00,,,0.00,WUHU21623XXSP,2013-10-08 02:43:00,
2013-10-07 21:48:00,63.0,53.4,30.01,North,0,0.0,0.0,71,0.00,,,0.00,WUHU21623XXSP,2013-10-08 02:48:00,
2013-10-07 21:53:00,63.0,53.4,30.02,North,0,0.0,0.0,71,0.00,,,0.00,WUHU21623XXSP,2013-10-08 02:53:00,
2013-10-07 21:58:00,62.8,53.2,30.02,North,0,0.0,0.0,71,0.00,,,0.00,WUHU21623XXSP,2013-10-08 02:58:00,
2013-10-07 22:03:00,62.8,53.2,30.02,North,0,0.0,0.0,71,0.00,,,0.00,WUHU21623XXSP,2013-10-08 03:03:00,
2013-10-07 22:08:00,62.8,53.2,30.02,North,0,0.0,0.0,71,0.00,,,0.00,WUHU21623XXSP,2013-10-08 03:08:00,
2013-10-07 22:13:00,62.8,53.2,30.02,North,0,0.0,0.0,71,0.00,,,0.00,WUHU21623XXSP,2013-10-08 03:13:00,
2013-10-07 22:18:00,62.8,54.7,30.02,North,0,0.0,0.0,71,0.00,,,0.00,WUHU21623XXSP,2013-10-08 03:18:00,
2013-10-07 22:23:00,62.8,53.2,30.02,North,0,0.0,0.0,71,0.00,,,0.00,WUHU21623XXSP,2013-10-08 03:23:00,
2013-10-07 22:28:00,62.8,53.2,30.02,North,0,0.0,0.0,71,0.00,,,0.00,WUHU21623XXSP,2013-10-08 03:28:00,
2013-10-07 22:33:00,62.8,53.2,30.02,North,0,0.0,0.0,71,0.00,,,0.00,WUHU21623XXSP,2013-10-08 03:33:00,
2013-10-07 22:38:00,62.8,53.2,30.02,North,0,0.0,0.0,71,0.00,,,0.00,WUHU21623XXSP,2013-10-08 03:38:00,
2013-10-07 22:43:00,62.8,53.2,30.01,North,0,0.0,0.0,71,0.00,,,0.00,WUHU21623XXSP,2013-10-08 03:43:00,
2013-10-07 22:48:00,62.4,53.2,30.01,North,0,0.0,0.0,71,0.00,,,0.00,WUHU21623XXSP,2013-10-08 03:48:00,
2013-10-07 22:53:00,62.4,52.9,30.01,North,0,0.0,0.0,71,0.00,,,0.00,WUHU21623XXSP,2013-10-08 03:53:00,
2013-10-07 22:58:00,62.4,52.9,30.01,North,0,0.0,0.0,71,0.00,,,0.00,WUHU21623XXSP,2013-10-08 03:58:00,
2013-10-07 23:01:00,62.4,52.9,30.01,North,0,0.0,0.0,71,0.00,,,0.00,WUHU21623XXSP,2013-10-08 04:01:00,
2013-10-07 23:02:00,62.4,52.9,30.01,North,0,0.0,0.0,71,0.00,,,0.00,WUHU21623XXSP,2013-10-08 04:02:00,
2013-10-07 23:07:00,62.4,52.9,30.01,North,0,0.0,0.0,71,0.00,,,0.00,WUHU21623XXSP,2013-10-08 04:07:00,
2013-10-07 23:12:00,62.2,52.7,30.01,North,0,0.0,0.0,71,0.00,,,0.00,WUHU21623XXSP,2013-10-08 04:12:00,
2013-10-07 23:17:00,62.2,52.7,30.01,North,0,0.0,0.0,71,0.00,,,0.00,WUHU21623XXSP,2013-10-08 04:17:00,
2013-10-07 23:22:00,62.2,53.1,30.01,North,0,0.0,0.0,72,0.00,,,0.00,WUHU21623XXSP,2013-10-08 04:22:00,
2013-10-07 23:27:00,61.9,52.9,30.01,North,0,0.0,0.0,72,0.00,,,0.00,WUHU21623XXSP,2013-10-08 04:27:00,
2013-10-07 23:32:00,61.9,52.8,30.01,North,0,0.0,0.0,72,0.00,,,0.00,WUHU21623XXSP,2013-10-08 04:32:00,
2013-10-07 23:37:00,61.9,52.8,30.00,North,0,0.0,0.0,72,0.00,,,0.00,WUHU21623XXSP,2013-10-08 04:37:00,
2013-10-07 23:42:00,61.9,52.8,30.00,North,0,0.0,0.0,72,0.00,,,0.00,WUHU21623XXSP,2013-10-08 04:42:00,
2013-10-07 23:47:00,61.9,52.8,30.00,North,0,0.0,0.0,72,0.00,,,0.00,WUHU21623XXSP,2013-10-08 04:47:00,
2013-10-07 23:52:00,61.9,52.8,30.00,North,0,0.0,0.0,72,0.00,,,0.00,WUHU21623XXSP,2013-10-08 04:52:00,